Location: Newark
(34.9500°N, 139.9667°E)
Time: 10:22:55
(UTC+00:00)

Vanguard 3 - Visible Passes

Search period start: 13 December 2019 00:00
Search period end: 23 December 2019 00:00
Orbit: 508 x 3263 km, 33.3° (Epoch: 12 December)

Date Brightness Start Highest point End Pass type
(mag) Time Alt. Az. Time Alt. Az. Time Alt. Az.
13 Dec 9.6 19:15:34 10° SSE 19:17:56 13° SE 19:20:46 10° ESE visible
14 Dec 8.9 20:10:23 10° SSW 20:14:49 34° SSE 20:21:43 10° E visible
15 Dec 9.3 18:59:57 12° SSE 19:01:42 15° SE 19:04:47 10° ESE visible
15 Dec 8.2 21:07:05 10° WSW 21:12:18 61° SSE 21:21:27 10° E visible
16 Dec 8.4 19:55:14 14° SSW 19:58:42 36° SSE 20:05:04 10° E visible
17 Dec 9.2 18:45:52 17° SE 18:45:52 17° SE 18:48:48 10° ESE visible
17 Dec 7.8 20:51:25 10° WSW 20:56:15 65° SSE 21:04:33 10° E visible
18 Dec 7.9 19:41:02 29° SSW 19:42:41 40° SSE 19:48:32 10° E visible
19 Dec 9.5 18:31:33 14° ESE 18:31:33 14° ESE 18:32:50 10° E visible
19 Dec 7.5 20:36:08 12° WSW 20:40:18 68° SSE 20:47:47 10° E visible
20 Dec 7.4 19:26:37 44° SSE 19:26:44 44° SSE 19:32:06 10° E visible
21 Dec 7.1 20:21:38 23° WSW 20:24:24 71° S 20:31:07 10° E visible
22 Dec 7.9 19:12:02 38° ESE 19:12:02 38° ESE 19:15:48 10° E visible
